Year,Month,Day,Hour,Minute,Value (Times are PST for temperature in C)
2015,02,21,00,00,5.60
2015,02,21,00,01,5.60
2015,02,21,00,02,5.60
2015,02,21,00,03,5.60
2015,02,21,00,04,5.50
2015,02,21,00,05,5.50
2015,02,21,00,06,5.50
2015,02,21,00,07,5.50
2015,02,21,00,08,5.50
2015,02,21,00,09,5.40
2015,02,21,00,10,5.40
2015,02,21,00,11,5.40
2015,02,21,00,12,5.40
2015,02,21,00,13,5.40
2015,02,21,00,14,5.40
2015,02,21,00,15,5.40
2015,02,21,00,16,5.40
2015,02,21,00,17,5.40
2015,02,21,00,18,5.40
2015,02,21,00,19,5.40
2015,02,21,00,20,5.40
2015,02,21,00,21,5.30
2015,02,21,00,22,5.30
2015,02,21,00,23,5.30
2015,02,21,00,24,5.30
2015,02,21,00,25,5.30
2015,02,21,00,26,5.30
2015,02,21,00,27,5.30
2015,02,21,00,28,5.30
2015,02,21,00,29,5.30
2015,02,21,00,30,5.20
2015,02,21,00,31,5.20
2015,02,21,00,32,5.20
2015,02,21,00,33,5.20
2015,02,21,00,34,5.10
2015,02,21,00,35,5.10
2015,02,21,00,36,5.10
2015,02,21,00,37,5.10
2015,02,21,00,38,5.10
2015,02,21,00,39,5.00
2015,02,21,00,40,5.00
2015,02,21,00,41,5.00
2015,02,21,00,42,4.90
2015,02,21,00,43,4.90
2015,02,21,00,44,4.90
2015,02,21,00,45,4.90
2015,02,21,00,46,4.90
2015,02,21,00,47,4.80
2015,02,21,00,48,4.80
2015,02,21,00,49,4.80
2015,02,21,00,50,4.70
2015,02,21,00,51,4.70
2015,02,21,00,52,4.70
2015,02,21,00,53,4.70
2015,02,21,00,54,4.60
2015,02,21,00,55,4.60
2015,02,21,00,56,4.60
2015,02,21,00,57,4.50
2015,02,21,00,58,4.50
2015,02,21,00,59,4.50
2015,02,21,01,00,4.40
2015,02,21,01,01,4.40
2015,02,21,01,02,4.40
2015,02,21,01,03,4.40
2015,02,21,01,04,4.30
2015,02,21,01,05,4.30
2015,02,21,01,06,4.30
2015,02,21,01,07,4.30
2015,02,21,01,08,4.30
2015,02,21,01,09,4.30
2015,02,21,01,10,4.20
2015,02,21,01,11,4.20
2015,02,21,01,12,4.20
2015,02,21,01,13,4.20
2015,02,21,01,14,4.20
2015,02,21,01,15,4.20
2015,02,21,01,16,4.10
2015,02,21,01,17,4.10
2015,02,21,01,18,4.10
2015,02,21,01,19,4.10
2015,02,21,01,20,4.00
2015,02,21,01,21,4.00
2015,02,21,01,22,4.00
2015,02,21,01,23,4.00
2015,02,21,01,24,3.90
2015,02,21,01,25,3.90
2015,02,21,01,26,3.90
2015,02,21,01,27,3.90
2015,02,21,01,28,3.90
2015,02,21,01,29,3.90
2015,02,21,01,30,3.90
2015,02,21,01,31,3.90
2015,02,21,01,32,3.90
2015,02,21,01,33,3.90
2015,02,21,01,34,3.90
2015,02,21,01,35,3.80
2015,02,21,01,36,3.80
2015,02,21,01,37,3.80
2015,02,21,01,38,3.80
2015,02,21,01,39,3.80
2015,02,21,01,40,3.80
2015,02,21,01,41,3.80
2015,02,21,01,42,3.80
2015,02,21,01,43,3.80
2015,02,21,01,44,3.80
2015,02,21,01,45,3.80
2015,02,21,01,46,3.80
2015,02,21,01,47,3.80
2015,02,21,01,48,3.70
2015,02,21,01,49,3.70
2015,02,21,01,50,3.70
2015,02,21,01,51,3.70
2015,02,21,01,52,3.70
2015,02,21,01,53,3.70
2015,02,21,01,54,3.70
2015,02,21,01,55,3.70
2015,02,21,01,56,3.70
2015,02,21,01,57,3.70
2015,02,21,01,58,3.70
2015,02,21,01,59,3.70
2015,02,21,02,00,3.70
2015,02,21,02,01,3.70
2015,02,21,02,02,3.70
2015,02,21,02,03,3.60
2015,02,21,02,04,3.60
2015,02,21,02,05,3.60
2015,02,21,02,06,3.60
2015,02,21,02,07,3.60
2015,02,21,02,08,3.60
2015,02,21,02,09,3.60
2015,02,21,02,10,3.60
2015,02,21,02,11,3.60
2015,02,21,02,12,3.60
2015,02,21,02,13,3.60
2015,02,21,02,14,3.60
2015,02,21,02,15,3.60
2015,02,21,02,16,3.60
2015,02,21,02,17,3.50
2015,02,21,02,18,3.50
2015,02,21,02,19,3.50
2015,02,21,02,20,3.60
2015,02,21,02,21,3.50
2015,02,21,02,22,3.50
2015,02,21,02,23,3.60
2015,02,21,02,24,3.60
2015,02,21,02,25,3.60
2015,02,21,02,26,3.60
2015,02,21,02,27,3.60
2015,02,21,02,28,3.60
2015,02,21,02,29,3.60
2015,02,21,02,30,3.60
2015,02,21,02,31,3.60
2015,02,21,02,32,3.60
2015,02,21,02,33,3.60
2015,02,21,02,34,3.60
2015,02,21,02,35,3.60
2015,02,21,02,36,3.60
2015,02,21,02,37,3.60
2015,02,21,02,38,3.60
2015,02,21,02,39,3.50
2015,02,21,02,40,3.50
2015,02,21,02,41,3.50
2015,02,21,02,42,3.50
2015,02,21,02,43,3.50
2015,02,21,02,44,3.50
2015,02,21,02,45,3.50
2015,02,21,02,46,3.50
2015,02,21,02,47,3.50
2015,02,21,02,48,3.50
2015,02,21,02,49,3.50
2015,02,21,02,50,3.50
2015,02,21,02,51,3.50
2015,02,21,02,52,3.50
2015,02,21,02,53,3.50
2015,02,21,02,54,3.50
2015,02,21,02,55,3.50
2015,02,21,02,56,3.50
2015,02,21,02,57,3.50
2015,02,21,02,58,3.40
2015,02,21,02,59,3.40
2015,02,21,03,00,3.40
2015,02,21,03,01,3.40
2015,02,21,03,02,3.40
2015,02,21,03,03,3.40
2015,02,21,03,04,3.40
2015,02,21,03,05,3.30
2015,02,21,03,06,3.30
2015,02,21,03,07,3.30
2015,02,21,03,08,3.30
2015,02,21,03,09,3.30
2015,02,21,03,10,3.30
2015,02,21,03,11,3.20
2015,02,21,03,12,3.20
2015,02,21,03,13,3.20
2015,02,21,03,14,3.20
2015,02,21,03,15,3.20
2015,02,21,03,16,3.20
2015,02,21,03,17,3.20
2015,02,21,03,18,3.20
2015,02,21,03,19,3.20
2015,02,21,03,20,3.20
2015,02,21,03,21,3.10
2015,02,21,03,22,3.10
2015,02,21,03,23,3.10
2015,02,21,03,24,3.10
2015,02,21,03,25,3.10
2015,02,21,03,26,3.10
2015,02,21,03,27,3.10
2015,02,21,03,28,3.10
2015,02,21,03,29,3.10
2015,02,21,03,30,3.10
2015,02,21,03,31,3.10
2015,02,21,03,32,3.10
2015,02,21,03,33,3.00
2015,02,21,03,34,3.00
2015,02,21,03,35,3.00
2015,02,21,03,36,3.00
2015,02,21,03,37,3.00
2015,02,21,03,38,3.00
2015,02,21,03,39,2.90
2015,02,21,03,40,2.90
2015,02,21,03,41,2.90
2015,02,21,03,42,2.90
2015,02,21,03,43,2.90
2015,02,21,03,44,2.90
2015,02,21,03,45,2.90
2015,02,21,03,46,2.90
2015,02,21,03,47,2.80
2015,02,21,03,48,2.80
2015,02,21,03,49,2.80
2015,02,21,03,50,2.80
2015,02,21,03,51,2.80
2015,02,21,03,52,2.80
2015,02,21,03,53,2.80
2015,02,21,03,54,2.80
2015,02,21,03,55,2.80
2015,02,21,03,56,2.80
2015,02,21,03,57,2.80
2015,02,21,03,58,2.80
2015,02,21,03,59,2.80
2015,02,21,04,00,2.70
2015,02,21,04,01,2.70
2015,02,21,04,02,2.80
2015,02,21,04,03,2.80
2015,02,21,04,04,2.80
2015,02,21,04,05,2.80
2015,02,21,04,06,2.80
2015,02,21,04,07,2.80
2015,02,21,04,08,2.80
2015,02,21,04,09,2.80
2015,02,21,04,10,2.80
2015,02,21,04,11,2.80
2015,02,21,04,12,2.80
2015,02,21,04,13,2.80
2015,02,21,04,14,2.80
2015,02,21,04,15,2.80
2015,02,21,04,16,2.80
2015,02,21,04,17,2.80
2015,02,21,04,18,2.80
2015,02,21,04,19,2.90
2015,02,21,04,20,2.90
2015,02,21,04,21,2.90
2015,02,21,04,22,2.90
2015,02,21,04,23,2.90
2015,02,21,04,24,2.90
2015,02,21,04,25,2.90
2015,02,21,04,26,3.00
2015,02,21,04,27,3.00
2015,02,21,04,28,3.00
2015,02,21,04,29,3.00
2015,02,21,04,30,3.10
2015,02,21,04,31,3.10
2015,02,21,04,32,3.10
2015,02,21,04,33,3.00
2015,02,21,04,34,3.10
2015,02,21,04,35,3.10
2015,02,21,04,36,3.10
2015,02,21,04,37,3.10
2015,02,21,04,38,3.10
2015,02,21,04,39,3.10
2015,02,21,04,40,3.10
2015,02,21,04,41,3.10
2015,02,21,04,42,3.10
2015,02,21,04,43,3.10
2015,02,21,04,44,3.00
2015,02,21,04,45,3.00
2015,02,21,04,46,3.00
2015,02,21,04,47,3.00
2015,02,21,04,48,2.90
2015,02,21,04,49,2.90
2015,02,21,04,50,2.90
2015,02,21,04,51,2.90
2015,02,21,04,52,2.80
2015,02,21,04,53,2.80
2015,02,21,04,54,2.80
2015,02,21,04,55,2.80
2015,02,21,04,56,2.80
2015,02,21,04,57,2.80
2015,02,21,04,58,2.80
2015,02,21,04,59,2.80
2015,02,21,05,00,2.80
2015,02,21,05,01,2.80
2015,02,21,05,02,2.80
2015,02,21,05,03,2.80
2015,02,21,05,04,2.80
2015,02,21,05,05,2.80
2015,02,21,05,06,2.80
2015,02,21,05,07,2.80
2015,02,21,05,08,2.80
2015,02,21,05,09,2.80
2015,02,21,05,10,2.80
2015,02,21,05,11,2.80
2015,02,21,05,12,2.80
2015,02,21,05,13,2.80
2015,02,21,05,14,2.80
2015,02,21,05,15,2.80
2015,02,21,05,16,2.80
2015,02,21,05,17,2.80
2015,02,21,05,18,2.80
2015,02,21,05,19,2.70
2015,02,21,05,20,2.70
2015,02,21,05,21,2.70
2015,02,21,05,22,2.70
2015,02,21,05,23,2.70
2015,02,21,05,24,2.60
2015,02,21,05,25,2.60
2015,02,21,05,26,2.60
2015,02,21,05,27,2.60
2015,02,21,05,28,2.50
2015,02,21,05,29,2.50
2015,02,21,05,30,2.50
2015,02,21,05,31,2.40
2015,02,21,05,32,2.40
2015,02,21,05,33,2.40
2015,02,21,05,34,2.40
2015,02,21,05,35,2.40
2015,02,21,05,36,2.40
2015,02,21,05,37,2.30
2015,02,21,05,38,2.30
2015,02,21,05,39,2.30
2015,02,21,05,40,2.30
2015,02,21,05,41,2.30
2015,02,21,05,42,2.30
2015,02,21,05,43,2.30
2015,02,21,05,44,2.30
2015,02,21,05,45,2.30
2015,02,21,05,46,2.30
2015,02,21,05,47,2.30
2015,02,21,05,48,2.30
2015,02,21,05,49,2.30
2015,02,21,05,50,2.30
2015,02,21,05,51,2.30
2015,02,21,05,52,2.30
2015,02,21,05,53,2.30
2015,02,21,05,54,2.30
2015,02,21,05,55,2.30
2015,02,21,05,56,2.30
2015,02,21,05,57,2.30
2015,02,21,05,58,2.30
2015,02,21,05,59,2.30
2015,02,21,06,00,2.30
2015,02,21,06,01,2.30
2015,02,21,06,02,2.30
2015,02,21,06,03,2.30
2015,02,21,06,04,2.30
2015,02,21,06,05,2.30
2015,02,21,06,06,2.30
2015,02,21,06,07,2.30
2015,02,21,06,08,2.30
2015,02,21,06,09,2.30
2015,02,21,06,10,2.30
2015,02,21,06,11,2.30
2015,02,21,06,12,2.20
2015,02,21,06,13,2.20
2015,02,21,06,14,2.20
2015,02,21,06,15,2.20
2015,02,21,06,16,2.20
2015,02,21,06,17,2.20
2015,02,21,06,18,2.20
2015,02,21,06,19,2.20
2015,02,21,06,20,2.20
2015,02,21,06,21,2.20
2015,02,21,06,22,2.20
2015,02,21,06,23,2.20
2015,02,21,06,24,2.20
2015,02,21,06,25,2.20
2015,02,21,06,26,2.20
2015,02,21,06,27,2.20
2015,02,21,06,28,2.20
2015,02,21,06,29,2.20
2015,02,21,06,30,2.20
2015,02,21,06,31,2.20
2015,02,21,06,32,2.20
2015,02,21,06,33,2.20
2015,02,21,06,34,2.20
2015,02,21,06,35,2.20
2015,02,21,06,36,2.20
2015,02,21,06,37,2.20
2015,02,21,06,38,2.20
2015,02,21,06,39,2.20
2015,02,21,06,40,2.10
2015,02,21,06,41,2.10
2015,02,21,06,42,2.10
2015,02,21,06,43,2.10
2015,02,21,06,44,2.10
2015,02,21,06,45,2.10
2015,02,21,06,46,2.10
2015,02,21,06,47,2.10
2015,02,21,06,48,2.10
2015,02,21,06,49,2.00
2015,02,21,06,50,2.00
2015,02,21,06,51,2.00
2015,02,21,06,52,2.00
2015,02,21,06,53,2.00
2015,02,21,06,54,2.00
2015,02,21,06,55,2.00
2015,02,21,06,56,2.00
2015,02,21,06,57,2.00
2015,02,21,06,58,2.00
2015,02,21,06,59,2.00
2015,02,21,07,00,1.90
2015,02,21,07,01,1.90
2015,02,21,07,02,1.90
2015,02,21,07,03,1.90
2015,02,21,07,04,1.90
2015,02,21,07,05,1.90
2015,02,21,07,06,1.90
2015,02,21,07,07,1.90
2015,02,21,07,08,1.80
2015,02,21,07,09,1.80
2015,02,21,07,10,1.80
2015,02,21,07,11,1.80
2015,02,21,07,12,1.80
2015,02,21,07,13,1.80
2015,02,21,07,14,1.80
2015,02,21,07,15,1.70
2015,02,21,07,16,1.70
2015,02,21,07,17,1.70
2015,02,21,07,18,1.70
2015,02,21,07,19,1.70
2015,02,21,07,20,1.70
2015,02,21,07,21,1.70
2015,02,21,07,22,1.70
2015,02,21,07,23,1.70
2015,02,21,07,24,1.60
2015,02,21,07,25,1.60
2015,02,21,07,26,1.60
2015,02,21,07,27,1.60
2015,02,21,07,28,1.60
2015,02,21,07,29,1.60
2015,02,21,07,30,1.60
2015,02,21,07,31,1.60
2015,02,21,07,32,1.60
2015,02,21,07,33,1.50
2015,02,21,07,34,1.50
2015,02,21,07,35,1.50
2015,02,21,07,36,1.40
2015,02,21,07,37,1.40
2015,02,21,07,38,1.40
2015,02,21,07,39,1.40
2015,02,21,07,40,1.40
2015,02,21,07,41,1.40
2015,02,21,07,42,1.40
2015,02,21,07,43,1.30
2015,02,21,07,44,1.30
2015,02,21,07,45,1.30
2015,02,21,07,46,1.30
2015,02,21,07,47,1.30
2015,02,21,07,48,1.30
2015,02,21,07,49,1.30
2015,02,21,07,50,1.40
2015,02,21,07,51,1.30
2015,02,21,07,52,1.40
2015,02,21,07,53,1.30
2015,02,21,07,54,1.40
2015,02,21,07,55,1.30
2015,02,21,07,56,1.30
2015,02,21,07,57,1.40
2015,02,21,07,58,1.30
2015,02,21,07,59,1.30
2015,02,21,08,00,1.30
2015,02,21,08,01,1.30
2015,02,21,08,02,1.30
2015,02,21,08,03,1.30
2015,02,21,08,04,1.30
2015,02,21,08,05,1.40
2015,02,21,08,06,1.40
2015,02,21,08,07,1.40
2015,02,21,08,08,1.30
2015,02,21,08,09,1.40
2015,02,21,08,10,1.40
2015,02,21,08,11,1.40
2015,02,21,08,12,1.40
2015,02,21,08,13,1.40
2015,02,21,08,14,1.40
2015,02,21,08,15,1.40
2015,02,21,08,16,1.40
2015,02,21,08,17,1.40
2015,02,21,08,18,1.40
2015,02,21,08,19,1.40
2015,02,21,08,20,1.50
2015,02,21,08,21,1.60
2015,02,21,08,22,1.60
2015,02,21,08,23,1.60
2015,02,21,08,24,1.60
2015,02,21,08,25,1.60
2015,02,21,08,26,1.60
2015,02,21,08,27,1.60
2015,02,21,08,28,1.60
2015,02,21,08,29,1.60
2015,02,21,08,30,1.60
2015,02,21,08,31,1.70
2015,02,21,08,32,1.70
2015,02,21,08,33,1.70
2015,02,21,08,34,1.70
2015,02,21,08,35,1.80
2015,02,21,08,36,1.80
2015,02,21,08,37,1.80
2015,02,21,08,38,1.80
2015,02,21,08,39,1.90
2015,02,21,08,40,1.90
2015,02,21,08,41,1.90
2015,02,21,08,42,1.90
2015,02,21,08,43,2.00
2015,02,21,08,44,2.00
2015,02,21,08,45,2.00
2015,02,21,08,46,2.00
2015,02,21,08,47,2.10
2015,02,21,08,48,2.10
2015,02,21,08,49,2.10
2015,02,21,08,50,2.10
2015,02,21,08,51,2.20
2015,02,21,08,52,2.20
2015,02,21,08,53,2.30
2015,02,21,08,54,2.30
2015,02,21,08,55,2.40
2015,02,21,08,56,2.40
2015,02,21,08,57,2.50
2015,02,21,08,58,2.60
2015,02,21,08,59,2.60
2015,02,21,09,00,2.70
2015,02,21,09,01,2.70
2015,02,21,09,02,2.80
2015,02,21,09,03,2.80
2015,02,21,09,04,2.80
2015,02,21,09,05,2.90
2015,02,21,09,06,2.90
2015,02,21,09,07,3.00
2015,02,21,09,08,3.00
2015,02,21,09,09,3.10
2015,02,21,09,10,3.10
2015,02,21,09,11,3.10
2015,02,21,09,12,3.10
2015,02,21,09,13,3.20
2015,02,21,09,14,3.20
2015,02,21,09,15,3.20
2015,02,21,09,16,3.20
2015,02,21,09,17,3.30
2015,02,21,09,18,3.30
2015,02,21,09,19,3.40
2015,02,21,09,20,3.40
2015,02,21,09,21,3.50
2015,02,21,09,22,3.60
2015,02,21,09,23,3.60
2015,02,21,09,24,3.70
2015,02,21,09,25,3.70
2015,02,21,09,26,3.80
2015,02,21,09,27,3.90
2015,02,21,09,28,4.00
2015,02,21,09,29,4.10
2015,02,21,09,30,4.10
2015,02,21,09,31,4.20
2015,02,21,09,32,4.30
2015,02,21,09,33,4.40
2015,02,21,09,34,4.50
2015,02,21,09,35,4.60
2015,02,21,09,36,4.70
2015,02,21,09,37,4.70
2015,02,21,09,38,4.80
2015,02,21,09,39,4.90
2015,02,21,09,40,4.90
2015,02,21,09,41,5.00
2015,02,21,09,42,5.00
2015,02,21,09,43,5.00
2015,02,21,09,44,5.10
2015,02,21,09,45,5.10
2015,02,21,09,46,5.10
2015,02,21,09,47,5.20
2015,02,21,09,48,5.20
2015,02,21,09,49,5.20
2015,02,21,09,50,5.30
2015,02,21,09,51,5.30
2015,02,21,09,52,5.30
2015,02,21,09,53,5.30
2015,02,21,09,54,5.40
2015,02,21,09,55,5.40
2015,02,21,09,56,5.40
2015,02,21,09,57,5.50
2015,02,21,09,58,5.60
2015,02,21,09,59,5.70
2015,02,21,10,00,5.70
2015,02,21,10,01,5.80
2015,02,21,10,02,5.80
2015,02,21,10,03,5.80
2015,02,21,10,04,5.80
2015,02,21,10,05,5.90
2015,02,21,10,06,5.90
2015,02,21,10,07,5.90
2015,02,21,10,08,5.90
2015,02,21,10,09,5.90
2015,02,21,10,10,6.00
2015,02,21,10,11,6.10
2015,02,21,10,12,6.20
2015,02,21,10,13,6.30
2015,02,21,10,14,6.40
2015,02,21,10,15,6.50
2015,02,21,10,16,6.60
2015,02,21,10,17,6.70
2015,02,21,10,18,6.80
2015,02,21,10,19,6.80
2015,02,21,10,20,6.90
2015,02,21,10,21,6.90
2015,02,21,10,22,6.90
2015,02,21,10,23,7.00
2015,02,21,10,24,7.00
2015,02,21,10,25,7.10
2015,02,21,10,26,7.10
2015,02,21,10,27,7.10
2015,02,21,10,28,7.10
2015,02,21,10,29,7.10
2015,02,21,10,30,7.20
2015,02,21,10,31,7.20
2015,02,21,10,32,7.10
2015,02,21,10,33,7.10
2015,02,21,10,34,7.20
2015,02,21,10,35,7.20
2015,02,21,10,36,7.30
2015,02,21,10,37,7.40
2015,02,21,10,38,7.50
2015,02,21,10,39,7.60
2015,02,21,10,40,7.70
2015,02,21,10,41,7.80
2015,02,21,10,42,7.90
2015,02,21,10,43,8.00
2015,02,21,10,44,8.10
2015,02,21,10,45,8.10
2015,02,21,10,46,8.20
2015,02,21,10,47,8.20
2015,02,21,10,48,8.30
2015,02,21,10,49,8.30
2015,02,21,10,50,8.40
2015,02,21,10,51,8.50
2015,02,21,10,52,8.50
2015,02,21,10,53,8.60
2015,02,21,10,54,8.70
2015,02,21,10,55,8.80
2015,02,21,10,56,8.80
2015,02,21,10,57,8.90
2015,02,21,10,58,9.00
2015,02,21,10,59,9.10
2015,02,21,11,00,9.10
2015,02,21,11,01,9.20
2015,02,21,11,02,9.20
2015,02,21,11,03,9.30
2015,02,21,11,04,9.30
2015,02,21,11,05,9.40
2015,02,21,11,06,9.40
2015,02,21,11,07,9.50
2015,02,21,11,08,9.60
2015,02,21,11,09,9.60
2015,02,21,11,10,9.70
2015,02,21,11,11,9.70
2015,02,21,11,12,9.80
2015,02,21,11,13,9.80
2015,02,21,11,14,9.80
2015,02,21,11,15,9.80
2015,02,21,11,16,9.80
2015,02,21,11,17,9.80
2015,02,21,11,18,9.80
2015,02,21,11,19,9.80
2015,02,21,11,20,9.70
2015,02,21,11,21,9.70
2015,02,21,11,22,9.80
2015,02,21,11,23,9.80
2015,02,21,11,24,9.80
2015,02,21,11,25,9.80
2015,02,21,11,26,9.80
2015,02,21,11,27,9.80
2015,02,21,11,28,9.80
2015,02,21,11,29,9.90
2015,02,21,11,30,9.90
2015,02,21,11,31,9.90
2015,02,21,11,32,9.90
2015,02,21,11,33,10.00
2015,02,21,11,34,10.00
2015,02,21,11,35,10.00
2015,02,21,11,36,10.00
2015,02,21,11,37,10.10
2015,02,21,11,38,10.10
2015,02,21,11,39,10.20
2015,02,21,11,40,10.30
2015,02,21,11,41,10.30
2015,02,21,11,42,10.40
2015,02,21,11,43,10.50
2015,02,21,11,44,10.60
2015,02,21,11,45,10.60
2015,02,21,11,46,10.70
2015,02,21,11,47,10.80
2015,02,21,11,48,10.80
2015,02,21,11,49,10.90
2015,02,21,11,50,11.00
2015,02,21,11,51,11.00
2015,02,21,11,52,11.10
2015,02,21,11,53,11.10
2015,02,21,11,54,11.20
2015,02,21,11,55,11.20
2015,02,21,11,56,11.30
2015,02,21,11,57,11.30
2015,02,21,11,58,11.40
2015,02,21,11,59,11.40
2015,02,21,12,00,11.40
2015,02,21,12,01,11.40
2015,02,21,12,02,11.50
2015,02,21,12,03,11.50
2015,02,21,12,04,11.50
2015,02,21,12,05,11.50
2015,02,21,12,06,11.50
2015,02,21,12,07,11.50
2015,02,21,12,08,11.40
2015,02,21,12,09,11.40
2015,02,21,12,10,11.40
2015,02,21,12,11,11.50
2015,02,21,12,12,11.50
2015,02,21,12,13,11.50
2015,02,21,12,14,11.60
2015,02,21,12,15,11.60
2015,02,21,12,16,11.60
2015,02,21,12,17,11.70
2015,02,21,12,18,11.70
2015,02,21,12,19,11.70
2015,02,21,12,20,11.70
2015,02,21,12,21,11.60
2015,02,21,12,22,11.60
2015,02,21,12,23,11.60
2015,02,21,12,24,11.60
2015,02,21,12,25,11.70
2015,02,21,12,26,11.80
2015,02,21,12,27,11.80
2015,02,21,12,28,11.90
2015,02,21,12,29,11.90
2015,02,21,12,30,11.90
2015,02,21,12,31,11.90
2015,02,21,12,32,12.00
2015,02,21,12,33,12.00
2015,02,21,12,34,12.00
2015,02,21,12,35,12.10
2015,02,21,12,36,12.20
2015,02,21,12,37,12.20
2015,02,21,12,38,12.30
2015,02,21,12,39,12.30
2015,02,21,12,40,12.30
2015,02,21,12,41,12.30
2015,02,21,12,42,12.20
2015,02,21,12,43,12.20
2015,02,21,12,44,12.10
2015,02,21,12,45,12.00
2015,02,21,12,46,12.00
2015,02,21,12,47,12.00
2015,02,21,12,48,12.00
2015,02,21,12,49,12.00
2015,02,21,12,50,12.00
2015,02,21,12,51,12.00
2015,02,21,12,52,12.10
2015,02,21,12,53,12.20
2015,02,21,12,54,12.30
2015,02,21,12,55,12.30
2015,02,21,12,56,12.40
2015,02,21,12,57,12.50
2015,02,21,12,58,12.60
2015,02,21,12,59,12.70
2015,02,21,13,00,12.80
2015,02,21,13,01,12.80
2015,02,21,13,02,12.90
2015,02,21,13,03,12.90
2015,02,21,13,04,13.00
2015,02,21,13,05,13.10
2015,02,21,13,06,13.20
2015,02,21,13,07,13.30
2015,02,21,13,08,13.30
2015,02,21,13,09,13.20
2015,02,21,13,10,13.20
2015,02,21,13,11,13.10
2015,02,21,13,12,13.10
2015,02,21,13,13,13.00
2015,02,21,13,14,12.90
2015,02,21,13,15,12.90
2015,02,21,13,16,12.80
2015,02,21,13,17,12.80
2015,02,21,13,18,12.80
2015,02,21,13,19,12.90
2015,02,21,13,20,12.90
2015,02,21,13,21,12.90
2015,02,21,13,22,12.90
2015,02,21,13,23,12.90
2015,02,21,13,24,12.90
2015,02,21,13,25,12.90
2015,02,21,13,26,12.90
2015,02,21,13,27,12.80
2015,02,21,13,28,12.80
2015,02,21,13,29,12.80
2015,02,21,13,30,12.80
2015,02,21,13,31,12.80
2015,02,21,13,32,12.70
2015,02,21,13,33,12.70
2015,02,21,13,34,12.70
2015,02,21,13,35,12.70
2015,02,21,13,36,12.80
2015,02,21,13,37,12.80
2015,02,21,13,38,12.80
2015,02,21,13,39,12.80
2015,02,21,13,40,12.80
2015,02,21,13,41,12.80
2015,02,21,13,42,12.80
2015,02,21,13,43,12.80
2015,02,21,13,44,12.80
2015,02,21,13,45,12.90
2015,02,21,13,46,12.90
2015,02,21,13,47,13.00
2015,02,21,13,48,13.10
2015,02,21,13,49,13.20
2015,02,21,13,50,13.30
2015,02,21,13,51,13.40
2015,02,21,13,52,13.50
2015,02,21,13,53,13.60
2015,02,21,13,54,13.60
2015,02,21,13,55,13.70
2015,02,21,13,56,13.70
2015,02,21,13,57,13.80
2015,02,21,13,58,13.80
2015,02,21,13,59,13.80
2015,02,21,14,00,13.80
2015,02,21,14,01,13.90
2015,02,21,14,02,13.90
2015,02,21,14,03,14.00
2015,02,21,14,04,14.00
2015,02,21,14,05,14.00
2015,02,21,14,06,14.00
2015,02,21,14,07,14.00
2015,02,21,14,08,14.00
2015,02,21,14,09,14.00
2015,02,21,14,10,14.00
2015,02,21,14,11,14.00
2015,02,21,14,12,14.10
2015,02,21,14,13,14.10
2015,02,21,14,14,14.10
2015,02,21,14,15,14.20
2015,02,21,14,16,14.20
2015,02,21,14,17,14.10
2015,02,21,14,18,14.10
2015,02,21,14,19,14.10
2015,02,21,14,20,14.10
2015,02,21,14,21,14.10
2015,02,21,14,22,14.20
2015,02,21,14,23,14.20
2015,02,21,14,24,14.20
2015,02,21,14,25,14.20
2015,02,21,14,26,14.20
2015,02,21,14,27,14.20
2015,02,21,14,28,14.20
2015,02,21,14,29,14.20
2015,02,21,14,30,14.20
2015,02,21,14,31,14.20
2015,02,21,14,32,14.20
2015,02,21,14,33,14.20
2015,02,21,14,34,14.20
2015,02,21,14,35,14.20
2015,02,21,14,36,14.20
2015,02,21,14,37,14.20
2015,02,21,14,38,14.20
2015,02,21,14,39,14.20
2015,02,21,14,40,14.20
2015,02,21,14,41,14.20
2015,02,21,14,42,14.30
2015,02,21,14,43,14.30
2015,02,21,14,44,14.30
2015,02,21,14,45,14.40
2015,02,21,14,46,14.50
2015,02,21,14,47,14.50
2015,02,21,14,48,14.60
2015,02,21,14,49,14.60
2015,02,21,14,50,14.60
2015,02,21,14,51,14.50
2015,02,21,14,52,14.50
2015,02,21,14,53,14.40
2015,02,21,14,54,14.30
2015,02,21,14,55,14.20
2015,02,21,14,56,14.10
2015,02,21,14,57,14.10
2015,02,21,14,58,14.10
2015,02,21,14,59,14.10
2015,02,21,15,00,14.00
2015,02,21,15,01,14.00
2015,02,21,15,02,14.00
2015,02,21,15,03,14.00
2015,02,21,15,04,14.00
2015,02,21,15,05,13.90
2015,02,21,15,06,13.90
2015,02,21,15,07,13.90
2015,02,21,15,08,13.90
2015,02,21,15,09,13.90
2015,02,21,15,10,13.90
2015,02,21,15,11,13.90
2015,02,21,15,12,14.00
2015,02,21,15,13,14.00
2015,02,21,15,14,14.10
2015,02,21,15,15,14.10
2015,02,21,15,16,14.10
2015,02,21,15,17,14.10
2015,02,21,15,18,14.10
2015,02,21,15,19,14.10
2015,02,21,15,20,14.10
2015,02,21,15,21,14.10
2015,02,21,15,22,14.20
2015,02,21,15,23,14.20
2015,02,21,15,24,14.20
2015,02,21,15,25,14.20
2015,02,21,15,26,14.20
2015,02,21,15,27,14.20
2015,02,21,15,28,14.20
2015,02,21,15,29,14.20
2015,02,21,15,30,14.20
2015,02,21,15,31,14.20
2015,02,21,15,32,14.20
2015,02,21,15,33,14.20
2015,02,21,15,34,14.30
2015,02,21,15,35,14.20
2015,02,21,15,36,14.20
2015,02,21,15,37,14.20
2015,02,21,15,38,14.20
2015,02,21,15,39,14.20
2015,02,21,15,40,14.20
2015,02,21,15,41,14.20
2015,02,21,15,42,14.20
2015,02,21,15,43,14.20
2015,02,21,15,44,14.20
2015,02,21,15,45,14.20
2015,02,21,15,46,14.10
2015,02,21,15,47,14.10
2015,02,21,15,48,14.00
2015,02,21,15,49,13.90
2015,02,21,15,50,13.90
2015,02,21,15,51,13.90
2015,02,21,15,52,13.90
2015,02,21,15,53,13.90
2015,02,21,15,54,14.00
2015,02,21,15,55,14.00
2015,02,21,15,56,14.00
2015,02,21,15,57,14.00
2015,02,21,15,58,14.10
2015,02,21,15,59,14.10
2015,02,21,16,00,14.10
2015,02,21,16,01,14.20
2015,02,21,16,02,14.20
2015,02,21,16,03,14.20
2015,02,21,16,04,14.20
2015,02,21,16,05,14.20
2015,02,21,16,06,14.30
2015,02,21,16,07,14.30
2015,02,21,16,08,14.30
2015,02,21,16,09,14.20
2015,02,21,16,10,14.20
2015,02,21,16,11,14.20
2015,02,21,16,12,14.20
2015,02,21,16,13,14.20
2015,02,21,16,14,14.20
2015,02,21,16,15,14.20
2015,02,21,16,16,14.20
2015,02,21,16,17,14.20
2015,02,21,16,18,14.20
2015,02,21,16,19,14.20
2015,02,21,16,20,14.20
2015,02,21,16,21,14.20
2015,02,21,16,22,14.20
2015,02,21,16,23,14.20
2015,02,21,16,24,14.20
2015,02,21,16,25,14.20
2015,02,21,16,26,14.20
2015,02,21,16,27,14.20
2015,02,21,16,28,14.20
2015,02,21,16,29,14.20
2015,02,21,16,30,14.20
2015,02,21,16,31,14.20
2015,02,21,16,32,14.20
2015,02,21,16,33,14.20
2015,02,21,16,34,14.20
2015,02,21,16,35,14.20
2015,02,21,16,36,14.10
2015,02,21,16,37,14.10
2015,02,21,16,38,14.10
2015,02,21,16,39,14.10
2015,02,21,16,40,14.10
2015,02,21,16,41,14.10
2015,02,21,16,42,14.10
2015,02,21,16,43,14.10
2015,02,21,16,44,14.10
2015,02,21,16,45,14.10
2015,02,21,16,46,14.10
2015,02,21,16,47,14.10
2015,02,21,16,48,14.10
2015,02,21,16,49,14.10
2015,02,21,16,50,14.10
2015,02,21,16,51,14.10
2015,02,21,16,52,14.10
2015,02,21,16,53,14.10
2015,02,21,16,54,14.10
2015,02,21,16,55,14.00
2015,02,21,16,56,13.90
2015,02,21,16,57,13.90
2015,02,21,16,58,13.80
2015,02,21,16,59,13.70
2015,02,21,17,00,13.70
2015,02,21,17,01,13.60
2015,02,21,17,02,13.40
2015,02,21,17,03,13.30
2015,02,21,17,04,13.20
2015,02,21,17,05,13.10
2015,02,21,17,06,13.00
2015,02,21,17,07,12.90
2015,02,21,17,08,12.80
2015,02,21,17,09,12.70
2015,02,21,17,10,12.60
2015,02,21,17,11,12.50
2015,02,21,17,12,12.50
2015,02,21,17,13,12.40
2015,02,21,17,14,12.30
2015,02,21,17,15,12.30
2015,02,21,17,16,12.30
2015,02,21,17,17,12.30
2015,02,21,17,18,12.20
2015,02,21,17,19,12.20
2015,02,21,17,20,12.20
2015,02,21,17,21,12.20
2015,02,21,17,22,12.10
2015,02,21,17,23,12.10
2015,02,21,17,24,12.00
2015,02,21,17,25,11.90
2015,02,21,17,26,11.80
2015,02,21,17,27,11.70
2015,02,21,17,28,11.70
2015,02,21,17,29,11.60
2015,02,21,17,30,11.50
2015,02,21,17,31,11.40
2015,02,21,17,32,11.40
2015,02,21,17,33,11.30
2015,02,21,17,34,11.20
2015,02,21,17,35,11.10
2015,02,21,17,36,11.00
2015,02,21,17,37,10.90
2015,02,21,17,38,10.90
2015,02,21,17,39,10.80
2015,02,21,17,40,10.70
2015,02,21,17,41,10.70
2015,02,21,17,42,10.60
2015,02,21,17,43,10.50
2015,02,21,17,44,10.40
2015,02,21,17,45,10.30
2015,02,21,17,46,10.30
2015,02,21,17,47,10.20
2015,02,21,17,48,10.10
2015,02,21,17,49,10.00